K5SVV Weather Reports


time (UTC)temp
C
wind
direction
speed
KPH
gust
KPH
rain 1hr
cm
rain 24hr
cm
rain mn
cm
humidity
%
barometer
mb
20260506024554 25 314 11.3 14.5 0.00 0.00 0.00 78 1006.8
20260506024050 25 223 0.0 0.0 0.00 0.00 0.00 84 1006.4
20260506023546 25 232 0.0 0.0 0.00 0.00 0.00 85 1006.1
20260506023044 25 222 0.0 0.0 0.00 0.00 0.00 85 1006.0
20260506022541 25 199 0.0 0.0 0.00 0.00 0.00 85 1005.5
20260506022039 25 220 0.0 0.0 0.00 0.00 0.00 85 1005.4
20260506021536 25 189 0.0 0.0 0.00 0.00 0.00 84 1005.5
20260506021033 25 200 0.0 0.0 0.00 0.00 0.00 84 1005.2
20260506020531 25 198 0.0 0.0 0.00 0.00 0.00 84 1005.3
20260506020028 25 185 0.0 0.0 0.00 0.00 0.00 84 1005.0
20260506015525 25 184 0.0 0.0 0.00 0.00 0.00 84 1005.0
20260506015022 25 188 0.0 0.0 0.00 0.00 0.00 84 1005.0
20260506014519 25 198 0.0 0.0 0.00 0.00 0.00 84 1005.1
20260506014015 25 233 0.0 0.0 0.00 0.00 0.00 83 1005.1
20260506013513 25 235 0.0 0.0 0.00 0.00 0.00 83 1004.9
20260506013010 25 357 0.0 0.0 0.00 0.00 0.00 83 1004.7
20260506012506 26 206 0.0 0.0 0.00 0.00 0.00 83 1004.8
20260506012003 26 206 0.0 0.0 0.00 0.00 0.00 82 1004.4
20260506011501 26 142 6.4 6.4 0.00 0.00 0.00 82 1004.6
20260506010957 26 151 6.4 9.7 0.00 0.00 0.00 82 1004.2
20260506010456 26 167 0.0 0.0 0.00 0.00 0.00 82 1003.9
20260506005951 26 162 0.0 0.0 0.00 0.00 0.00 82 1004.1
20260506005449 26 208 8.0 14.5 0.00 0.00 0.00 82 1004.1
20260506004944 26 163 0.0 0.0 0.00 0.00 0.00 82 1004.1
20260506004443 26 162 4.8 9.7 0.00 0.00 0.00 81 1004.2
20260506003938 26 204 3.2 14.5 0.00 0.00 0.00 81 1004.3
20260506003435 26 144 9.7 11.3 0.00 0.00 0.00 81 1004.2
20260506002932 26 202 0.0 0.0 0.00 0.00 0.00 81 1004.2
20260506002428 27 190 3.2 14.5 0.00 0.00 0.00 80 1004.0
20260506001923 27 163 9.7 12.9 0.00 0.00 0.00 80 1004.1
20260506001421 27 160 4.8 6.4 0.00 0.00 0.00 80 1003.9
20260506000918 27 156 4.8 9.7 0.00 0.00 0.00 80 1003.8
20260506000416 27 167 6.4 9.7 0.00 0.00 0.00 80 1004.0
20260505235912 27 163 0.0 3.2 0.00 0.00 0.00 80 1003.9
20260505235410 27 170 1.6 6.4 0.00 0.00 0.00 80 1004.2
20260505234907 27 174 8.0 12.9 0.00 0.00 0.00 80 1003.9
20260505234404 27 171 9.7 12.9 0.00 0.00 0.00 79 1004.0
20260505233901 27 156 6.4 11.3 0.00 0.00 0.00 79 1004.2
20260505233359 27 207 14.5 17.7 0.00 0.00 0.00 79 1004.0
20260505232856 27 156 8.0 11.3 0.00 0.00 0.00 78 1003.8
20260505232354 27 192 8.0 11.3 0.00 0.00 0.00 78 1003.8
20260505231850 27 185 9.7 11.3 0.00 0.00 0.00 78 1003.8
20260505231348 28 158 4.8 14.5 0.00 0.00 0.00 78 1004.0
20260505230846 28 158 6.4 11.3 0.00 0.00 0.00 77 1003.7
20260505230343 28 153 12.9 20.9 0.00 0.00 0.00 77 1003.5
20260505225839 28 140 8.0 11.3 0.00 0.00 0.00 77 1003.6
20260505225337 28 193 0.0 0.0 0.00 0.00 0.00 77 1003.5
20260505224831 28 185 9.7 11.3 0.00 0.00 0.00 77 1003.5
20260505224330 28 178 4.8 4.8 0.00 0.00 0.00 76 1003.4
20260505223826 29 159 0.0 0.0 0.00 0.00 0.00 75 1003.5
20260505223323 29 187 8.0 9.7 0.00 0.00 0.00 74 1003.3
20260505222819 29 198 6.4 9.7 0.00 0.00 0.00 73 1003.7
20260505222315 29 176 4.8 9.7 0.00 0.00 0.00 73 1003.7
20260505221813 29 197 8.0 12.9 0.00 0.00 0.00 73 1003.6
20260505221309 29 196 6.4 9.7 0.00 0.00 0.00 74 1003.5
20260505220806 29 194 9.7 14.5 0.00 0.00 0.00 73 1003.4
20260505220303 30 157 12.9 14.5 0.00 0.00 0.00 72 1003.6
20260505215802 30 186 8.0 9.7 0.00 0.00 0.00 71 1003.7
20260505215259 30 185 1.6 4.8 0.00 0.00 0.00 72 1003.6
20260505214756 30 175 12.9 14.5 0.00 0.00 0.00 71 1003.7
20260505214254 30 188 6.4 9.7 0.00 0.00 0.00 71 1003.4
20260505213751 30 195 12.9 14.5 0.00 0.00 0.00 71 1003.4
20260505213249 30 173 9.7 12.9 0.00 0.00 0.00 71 1003.7
20260505212744 30 179 9.7 12.9 0.00 0.00 0.00 71 1003.6
20260505212242 30 186 9.7 14.5 0.00 0.00 0.00 69 1003.6
20260505211738 30 190 8.0 11.3 0.00 0.00 0.00 71 1003.8
20260505211236 30 160 6.4 9.7 0.00 0.00 0.00 70 1003.8
20260505210732 30 193 6.4 9.7 0.00 0.00 0.00 72 1003.9
20260505210229 30 228 9.7 14.5 0.00 0.00 0.00 71 1004.0
20260505205726 30 181 11.3 16.1 0.00 0.00 0.00 71 1003.9
20260505205224 30 177 14.5 20.9 0.00 0.00 0.00 71 1003.7
20260505204720 30 174 3.2 4.8 0.00 0.00 0.00 71 1003.8
20260505204219 30 194 14.5 17.7 0.00 0.00 0.00 70 1004.3
20260505203715 30 197 9.7 11.3 0.00 0.00 0.00 70 1004.1
20260505203212 30 217 8.0 14.5 0.00 0.00 0.00 73 1004.3
20260505202708 30 193 16.1 22.5 0.00 0.00 0.00 71 1004.3
20260505202204 30 195 8.0 12.9 0.00 0.00 0.00 72 1004.3
20260505201701 30 213 8.0 11.3 0.00 0.00 0.00 73 1004.1
20260505201159 29 222 11.3 17.7 0.00 0.00 0.00 71 1004.4
20260505200657 29 184 12.9 17.7 0.00 0.00 0.00 74 1004.2
20260505200153 29 240 3.2 6.4 0.00 0.00 0.00 73 1004.4
20260505195649 29 198 9.7 12.9 0.00 0.00 0.00 72 1004.3
20260505195147 28 208 14.5 16.1 0.00 0.00 0.00 73 1004.4
20260505194644 28 220 14.5 17.7 0.00 0.00 0.00 73 1004.5
20260505194140 28 190 9.7 9.7 0.00 0.00 0.00 74 1004.6
20260505193636 28 203 8.0 9.7 0.00 0.00 0.00 73 1004.4
20260505193134 28 236 9.7 11.3 0.00 0.00 0.00 73 1004.5
20260505192632 28 199 11.3 12.9 0.00 0.00 0.00 74 1004.5
20260505192129 28 237 14.5 17.7 0.00 0.00 0.00 72 1004.7
20260505191628 28 205 17.7 22.5 0.00 0.00 0.00 73 1004.7
20260505191125 28 190 8.0 9.7 0.00 0.00 0.00 75 1004.7
20260505190621 28 206 12.9 16.1 0.00 0.00 0.00 75 1004.6
20260505190116 28 224 14.5 17.7 0.00 0.00 0.00 73 1004.8
20260505185613 28 168 9.7 12.9 0.00 0.00 0.00 74 1004.8
20260505185109 28 196 9.7 14.5 0.00 0.00 0.00 74 1004.9
20260505184606 28 199 9.7 12.9 0.00 0.00 0.00 74 1004.8
20260505184103 27 227 9.7 11.3 0.00 0.00 0.00 75 1005.0
20260505183559 27 182 12.9 17.7 0.00 0.00 0.00 75 1005.0
20260505183057 27 218 14.5 17.7 0.00 0.00 0.00 74 1005.0
20260505182553 27 224 9.7 11.3 0.00 0.00 0.00 75 1005.3
20260505182050 27 198 11.3 14.5 0.00 0.00 0.00 75 1005.3
20260505181546 27 211 14.5 17.7 0.00 0.00 0.00 76 1005.3
20260505181044 27 209 12.9 16.1 0.00 0.00 0.00 76 1005.3
20260505180539 27 223 9.7 12.9 0.00 0.00 0.00 76 1005.1
20260505180038 27 162 16.1 24.1 0.00 0.00 0.00 76 1005.4
20260505175537 27 191 11.3 12.9 0.00 0.00 0.00 77 1005.2
20260505175035 26 202 14.5 24.1 0.00 0.00 0.00 78 1005.1
20260505174532 26 202 17.7 22.5 0.00 0.00 0.00 78 1005.3
20260505174028 26 209 14.5 20.9 0.00 0.00 0.00 78 1005.3
20260505173525 26 198 8.0 11.3 0.00 0.00 0.00 79 1005.0
20260505173022 26 214 9.7 17.7 0.00 0.00 0.00 78 1005.0
20260505172520 26 245 8.0 11.3 0.00 0.00 0.00 78 1005.2
20260505172015 26 165 16.1 17.7 0.00 0.00 0.00 78 1004.9
20260505171510 26 176 14.5 17.7 0.00 0.00 0.00 81 1004.9
20260505171008 25 190 12.9 17.7 0.00 0.00 0.00 80 1005.2
20260505170505 25 175 17.7 22.5 0.00 0.00 0.00 81 1005.2
20260505170000 25 214 14.5 17.7 0.00 0.00 0.00 81 1005.2
20260505165456 25 183 12.9 16.1 0.00 0.00 0.00 82 1005.1
20260505164952 25 195 16.1 22.5 0.00 0.00 0.00 82 1004.9
20260505164448 25 200 22.5 27.4 0.00 0.00 0.00 81 1004.9
20260505163946 25 205 12.9 16.1 0.00 0.00 0.00 82 1005.0
20260505163445 25 238 17.7 25.7 0.00 0.00 0.00 81 1005.0
20260505162944 25 214 14.5 16.1 0.00 0.00 0.00 82 1005.3
20260505162439 25 194 19.3 25.7 0.00 0.00 0.00 82 1005.5
20260505161936 25 184 22.5 25.7 0.00 0.00 0.00 82 1005.2
20260505161433 25 191 14.5 16.1 0.00 0.00 0.00 82 1005.0
20260505160930 25 187 8.0 11.3 0.00 0.00 0.00 82 1005.3
20260505160429 24 155 9.7 12.9 0.00 0.00 0.00 83 1005.0
20260505152904 23 186 17.7 22.5 0.00 0.00 0.00 85 1005.1
20260505152356 23 207 11.3 14.5 0.00 0.00 0.00 85 1005.1
20260505151855 23 217 17.7 25.7 0.00 0.00 0.00 85 1005.3
20260505151352 23 235 12.9 17.7 0.00 0.00 0.00 85 1005.4
20260505150849 23 244 11.3 14.5 0.00 0.00 0.00 85 1005.7
20260505150347 23 161 24.1 29.0 0.00 0.00 0.00 84 1005.4
20260505140311 22 196 20.9 25.7 0.00 0.00 0.00 87 1004.8
20260505130229 21 215 16.1 20.9 0.00 0.00 0.00 91 1004.6
20260505124719 21 218 14.5 27.4 0.00 0.00 0.00 92 1004.2
20260505124216 21 196 12.9 16.1 0.00 0.00 0.00 92 1004.1
20260505123711 20 200 11.3 16.1 0.00 0.00 0.00 92 1004.3
20260505123208 20 190 11.3 14.5 0.00 0.00 0.00 92 1004.4
20260505122704 20 196 14.5 16.1 0.00 0.00 0.00 92 1004.2
20260505122201 20 195 12.9 16.1 0.00 0.00 0.00 92 1004.0
20260505121653 20 175 16.1 17.7 0.00 0.00 0.00 92 1004.1
20260505121149 20 189 22.5 27.4 0.00 0.00 0.00 93 1003.9
20260505120646 20 156 16.1 20.9 0.00 0.00 0.00 92 1003.9
20260505120141 20 210 16.1 22.5 0.00 0.00 0.00 93 1003.8
20260505115635 20 199 17.7 22.5 0.00 0.00 0.00 92 1003.9
20260505115133 20 208 20.9 25.7 0.00 0.00 0.00 92 1004.0
20260505114625 20 215 11.3 16.1 0.00 0.00 0.00 92 1003.9
20260505114120 20 215 9.7 16.1 0.00 0.00 0.00 92 1003.8
20260505113617 20 171 17.7 22.5 0.00 0.00 0.00 92 1003.8
20260505113113 20 208 9.7 14.5 0.00 0.00 0.00 92 1003.9
20260505112609 20 196 14.5 16.1 0.00 0.00 0.00 92 1004.0
20260505112108 20 192 9.7 14.5 0.00 0.00 0.00 92 1003.8
20260505111602 20 191 6.4 11.3 0.00 0.00 0.00 92 1003.9
20260505111058 20 211 11.3 17.7 0.00 0.00 0.00 92 1003.8
20260505110555 20 198 3.2 9.7 0.00 0.00 0.00 92 1003.9
20260505102027 20 169 14.5 22.5 0.00 0.00 0.00 92 1004.0
20260505101526 20 203 24.1 29.0 0.00 0.00 0.00 91 1003.9
20260505101022 20 207 14.5 20.9 0.00 0.00 0.00 91 1004.0
20260505100519 20 211 12.9 25.7 0.00 0.00 0.00 91 1003.9
20260505100016 20 184 12.9 17.7 0.00 0.00 0.00 91 1003.6
20260505095512 21 150 14.5 20.9 0.00 0.00 0.00 91 1003.9
20260505095008 21 193 16.1 17.7 0.00 0.00 0.00 91 1003.8
20260505094505 21 196 8.0 11.3 0.00 0.00 0.00 91 1004.1
20260505094001 21 185 9.7 11.3 0.00 0.00 0.00 91 1003.9
20260505093458 21 213 17.7 22.5 0.00 0.00 0.00 91 1004.0
20260505092955 21 200 17.7 22.5 0.00 0.00 0.00 91 1003.9
20260505092453 21 206 20.9 25.7 0.00 0.00 0.00 91 1004.2
20260505091950 21 192 20.9 25.7 0.00 0.00 0.00 91 1004.1
20260505091448 21 199 9.7 12.9 0.00 0.00 0.00 91 1004.1
20260505090946 21 209 16.1 22.5 0.00 0.00 0.00 91 1004.1
20260505090443 21 221 19.3 20.9 0.00 0.00 0.00 91 1004.0
20260505085940 20 211 22.5 29.0 0.00 0.00 0.00 91 1004.2
20260505085438 20 200 16.1 17.7 0.00 0.00 0.00 91 1004.0
20260505084936 20 179 22.5 27.4 0.00 0.00 0.00 91 1004.0
20260505084434 20 214 12.9 16.1 0.00 0.00 0.00 91 1003.9
20260505083932 20 200 20.9 25.7 0.00 0.00 0.00 91 1003.8
20260505083429 20 197 16.1 20.9 0.00 0.00 0.00 91 1003.9
20260505082925 20 203 19.3 22.5 0.00 0.00 0.00 91 1004.2
20260505082421 20 197 20.9 25.7 0.00 0.00 0.00 91 1004.2
20260505081918 20 157 14.5 16.1 0.00 0.00 0.00 91 1004.1
20260505081415 20 215 20.9 24.1 0.00 0.00 0.00 91 1004.0
20260505080911 20 184 16.1 22.5 0.00 0.00 0.00 91 1004.1
20260505080408 20 174 16.1 20.9 0.00 0.00 0.00 91 1004.3
20260505075903 20 161 14.5 16.1 0.00 0.00 0.00 91 1004.4
20260505075400 20 190 20.9 24.1 0.00 0.00 0.00 91 1004.5
20260505074858 20 209 9.7 14.5 0.00 0.00 0.00 91 1004.5
20260505074355 20 195 20.9 25.7 0.00 0.00 0.00 91 1004.3
20260505073851 20 195 14.5 20.9 0.00 0.00 0.00 91 1004.7
20260505073350 20 178 17.7 25.7 0.00 0.00 0.00 91 1004.5
20260505072847 20 192 19.3 25.7 0.00 0.00 0.00 90 1004.9
20260505072343 20 165 16.1 17.7 0.00 0.00 0.00 90 1004.9
20260505071839 20 185 19.3 24.1 0.00 0.00 0.00 90 1005.0
20260505071335 20 142 20.9 25.7 0.00 0.00 0.00 90 1005.2
20260505070834 21 190 16.1 24.1 0.00 0.00 0.00 89 1005.2
20260505070330 21 155 19.3 22.5 0.00 0.00 0.00 89 1005.3
20260505065825 21 211 12.9 17.7 0.00 0.00 0.00 89 1005.2
20260505065322 21 200 14.5 17.7 0.00 0.00 0.00 88 1005.4
20260505064819 21 189 8.0 12.9 0.00 0.00 0.00 88 1005.3
20260505064316 21 198 14.5 17.7 0.00 0.00 0.00 88 1005.7
20260505063814 21 172 14.5 17.7 0.00 0.00 0.00 87 1005.7
20260505063310 21 201 12.9 16.1 0.00 0.00 0.00 87 1005.2
20260505062807 21 194 16.1 20.9 0.00 0.00 0.00 87 1005.4
20260505062304 21 196 16.1 20.9 0.00 0.00 0.00 87 1005.9
20260505061801 21 208 16.1 17.7 0.00 0.00 0.00 86 1005.7
20260505061259 21 204 22.5 33.8 0.00 0.00 0.00 86 1005.5
20260505060756 21 206 17.7 20.9 0.00 0.00 0.00 86 1005.5
20260505060253 21 201 19.3 27.4 0.00 0.00 0.00 86 1005.5
20260505055749 21 204 22.5 25.7 0.00 0.00 0.00 85 1005.5
20260505055245 21 194 14.5 20.9 0.00 0.00 0.00 85 1005.7
20260505054742 21 198 19.3 24.1 0.00 0.00 0.00 85 1005.4
20260505054240 22 223 22.5 29.0 0.00 0.00 0.00 84 1005.4
20260505053738 22 207 17.7 25.7 0.00 0.00 0.00 84 1005.7
20260505053234 22 188 19.3 22.5 0.00 0.00 0.00 83 1005.8
20260505052731 22 184 19.3 29.0 0.00 0.00 0.00 83 1005.9
20260505052228 22 222 16.1 17.7 0.00 0.00 0.00 83 1005.8
20260505051725 22 154 16.1 20.9 0.00 0.00 0.00 82 1005.8
20260505051223 22 176 17.7 20.9 0.00 0.00 0.00 82 1005.7
20260505050721 22 189 20.9 27.4 0.00 0.00 0.00 82 1006.1
20260505050219 22 184 20.9 29.0 0.00 0.00 0.00 81 1005.8
20260505041649 22 214 14.5 20.9 0.00 0.00 0.00 80 1006.0
20260505041146 22 178 11.3 14.5 0.00 0.00 0.00 79 1006.3
20260505040643 22 169 8.0 14.5 0.00 0.00 0.00 80 1006.3
20260505040140 22 190 12.9 14.5 0.00 0.00 0.00 79 1006.2
20260505035636 22 179 20.9 27.4 0.00 0.00 0.00 79 1006.1
20260505035133 22 174 8.0 14.5 0.00 0.00 0.00 79 1006.0
20260505034629 22 178 9.7 12.9 0.00 0.00 0.00 79 1006.3
20260505034127 22 192 9.7 11.3 0.00 0.00 0.00 79 1006.0
20260505033623 22 171 8.0 11.3 0.00 0.00 0.00 79 1006.1
20260505033122 22 203 11.3 16.1 0.00 0.00 0.00 79 1006.2
20260505032619 22 158 14.5 16.1 0.00 0.00 0.00 79 1006.2
20260505032115 22 192 3.2 6.4 0.00 0.00 0.00 79 1006.1
20260505031613 22 190 14.5 22.5 0.00 0.00 0.00 79 1006.3
20260505031109 22 186 14.5 17.7 0.00 0.00 0.00 79 1006.4
20260505030606 22 201 8.0 12.9 0.00 0.00 0.00 79 1006.6
20260505025557 22 194 4.8 6.4 0.00 0.00 0.00 79 1006.1
20260505025057 22 202 12.9 14.5 0.00 0.00 0.00 78 1006.2